Simultaneous Nadir Overpasses (SNOs) Predictions

Prediction of SNOs between AQUA and METOP-A Satellite Orbit:

Table of predicted SNOs for the next 14.0 days since TLE Epoch: 5/10/2013
Index Date (AQUA) Time (AQUA) Lat,Lon (AQUA) SZA (AQUA ) Date (METOP-A) Time (METOP-A) Lat,Lon (METOP-A) SZA (METOP-A ) Distance(km) Time Diff (sec)
1 05/13/2013 11:30:28 73.87, 1.69 55.36 05/13/2013 11:29:33 73.90, 1.71 55.39 2.75 55
2 05/13/2013 12:19:55 -73.94, 169.17 124.58 05/13/2013 12:20:13 -73.96, 169.19 124.56 1.54 18
3 05/13/2013 13:09:35 74.60, -24.73 56.12 05/13/2013 13:10:41 74.56, -21.94 56.00 82.61 66
4 05/16/2013 07:04:35 73.87, 68.16 54.69 05/16/2013 07:03:56 73.87, 68.05 54.70 3.40 39
5 05/16/2013 07:54:02 -73.94,-124.35 125.25 05/16/2013 07:54:36 -73.93,-124.46 125.25 3.58 34
6 05/19/2013 02:38:41 73.90, 134.57 54.10 05/19/2013 02:38:17 73.88, 134.50 54.09 2.86 24
7 05/19/2013 03:28:08 -73.96, -57.93 125.84 05/19/2013 03:28:57 -73.95, -58.01 125.86 2.69 49
8 05/21/2013 21:23:16 -73.70, 33.85 126.69 05/21/2013 21:22:04 -73.64, 33.00 126.71 27.36 72
9 05/21/2013 22:12:47 73.90,-158.96 53.52 05/21/2013 22:12:39 73.89,-159.07 53.52 3.38 8
10 05/21/2013 23:02:14 -73.96, 8.54 126.42 05/21/2013 23:03:19 -73.96, 8.44 126.43 3.24 65
11 05/24/2013 16:57:25 -73.87, 99.93 127.03 05/24/2013 16:56:21 -73.89, 100.02 127.01 3.36 64
12 05/24/2013 17:46:53 73.93, -92.55 53.02 05/24/2013 17:47:00 73.94, -92.52 53.04 1.90 7




NCC Satellite Simultaneous Nadir Overpasses (SNOs) Prediction Service
